Location: Newark
(34.6283°N, 36.0776°E)
Time: 05:24:07
(UTC+00:00)

A-11 Canister half - Pass Details

Date: 17 September 2019
Orbit: 1527 x 1682 km, 47.3° (Epoch: 22 October)

Event Time Altitude Azimuth Distance (km) Brightness Sun altitude
Rises 05:30:58 0° 288° (WNW) 4,751 11.0 25.9°
Reaches altitude 10° 05:34:21 10° 296° (WNW) 3,788 10.6 26.5°
Maximum altitude 05:43:14 39° 3° (N) 2,267 10.1 28.3°
Drops below altitude 10° 05:52:23 10° 70° (ENE) 3,900 12.0 30.1°
Sets 05:55:55 0° 78° (ENE) 4,904 12.4 30.7°
